TISAT 1

Last updated on Mon Sep 21 2026 00:03:44 GMT+0000 (Coordinated Universal Time)

1 36799U 10035E 26263.38925987 .00016551 00000+0 48741-3 0 9997 2 36799 98.0780 218.6826 0000398 112.7845 247.3439 15.35142584882298
UTC large
Height (km)
Speed (km/s)
/
Latitude / Longitude
Inclination (degrees)
Orbital Period (minutes)
Azimuth
Elevation
Range (km)
Doppler Factor

Next 0 passes for location: London (51.5072 / 0.1276)

No passes found over London.
TISAT 1